www.pogodaiklimat.ru

Погода и климат >> Архив погоды >> Узбекистан >> Ургенч


АРХИВ ПОГОДЫ в Ургенче

Время (UTC), дата Ветер
(напр.,м/с)
 
Видим.   Явления Облачность Т
(С)
Тd
(С)
f
(%)
Тe
(С)
Тes
(С)
Комфортность P
(гПа)
Po
(гПа)
Тmin
(С)
Tmax
(С)
R
(мм)
R24
(мм)
S
(см)
21 12.06 СЗ 2 4000 м ясно +19.6 +11.2 58 +21 +21 комфорт 1010.5 998.7
00 13.06 ЮВ 1 4000 м ясно +17.3 +12.4 73 +18 +18 1010.4 998.5 +1.3
03 13.06 В 2 10 км ясно +25.3 +11.4 42 +27 +31 жарко 1010.4 998.8 +15.5
06 13.06 В 3 10 км ясно +32.8 +5.5 18 +31 +44 жарко 1009.9 998.6 +15.5
09 13.06 СВ 3 10 км 3/3 2000 м
[Cu hum]
+35.6 +2.3 12 +32 +43 жарко 1008.5 997.3
12 13.06 СЗ 4 10 км 3/3 2000 м
[Cu hum]
+36.7 +1.7 11 +33 +37 жарко 1006.9 995.3
15 13.06 З 3 10 км 3/0
[Ci fib]
+33.2 +5.3 17 +31 +31 жарко 1006.5 995.2 +36.7
18 13.06 СЗ 3 10 км 5/0
[Ci fib]
+26.3 +7.8 31 +26 +26 жарко 1006.8 995.3 +36.7
21 13.06 нст 1 10 км 8/0
[Ci fib]
+22.6 +10.9 48 +25 +25 комфорт 1006.0 994.4
00 14.06 штиль 0 10 км 6/0
[Ci fib]
+21.0 +12.7 59 +23 +23 комфорт 1005.9 994.2
03 14.06 нст 91 10 км 6/0
[Ci fib]
+28.1 +12.1 37 +29 +29 жарко 1006.4 995.0 +19.1
06 14.06 З 4 10 км 8/0
[Ci fib]
+33.3 +5.1 17 +31 +40 жарко 1006.8 995.5 +19.1
09 14.06 СЗ 5 10 км 4/0
[Ci fib]
+36.6 +1.9 11 +33 +42 жарко 994.6
12 14.06 З 5 10 км 4/4 2000 м
[Cu hum]
+37.3 +0.9 10 +34 +36 очень
жарко
1004.4 993.3
15 14.06 СЗ 4 10 км 8/3
[Cb calv Ci fib]
+33.6 +5.5 17 +31 +31 жарко 1004.4 993.1 +38.4
18 14.06 С 3 10 км 8/0
[Ac trans]
+26.0 +9.0 34 +26 +26 жарко 1006.7 995.2 +38.4
21 14.06 З 3 4000 м гроза без осадков 8/3 2000 м
[Cb calv Ac trans]
+26.1 +9.9 36 +27 +27 жарко 1006.5 995.0
00 15.06 СЗ 3 10 км {гроза} 3/0
[Ac trans]
+19.8 +11.2 58 +22 +22 комфорт 1007.6 995.9 +1.9
03 15.06 С 4 10 км ясно +25.1 +13.1 47 +27 +30 жарко 1009.0 997.4 +18.3
06 15.06 СВ 3 10 км ясно +29.2 +9.0 28 +29 +43 жарко 1010.2 998.7 +18.3
09 15.06 СЗ 2 10 км ясно +31.4 +6.7 21 +30 +49 жарко 1009.4 998.0
12 15.06 З 7 10 км ясно +33.0 -2.2 10 +29 +31 жарко 1008.9 997.6
15 15.06 СЗ 3 10 км ясно +28.5 +3.2 20 +27 +27 жарко 1009.3 997.8 +33.7
18 15.06 СЗ 3 10 км ясно +21.9 +2.1 27 +22 +22 комфорт 1010.4 998.6 +33.7
21 15.06 С 2 10 км ясно +17.3 +7.1 51 +18 +18 1010.7 998.8
00 16.06 С 1 10 км ясно +16.7 +3.2 40 +18 +18 1011.7 999.8
03 16.06 СВ 4 10 км ясно +22.3 +1.4 25 +22 +25 комфорт 1013.1 1001.4 +14.4
06 16.06 В 5 10 км ясно +27.2 +1.9 19 +25 +34 комфорт 1013.1 1001.6 +14.4
09 16.06 В 3 10 км ясно +29.5 +1.3 16 +27 +43 жарко 1012.3 1000.8
12 16.06 СВ 2 10 км ясно +31.2 +2.5 16 +29 +37 жарко 1010.9 999.5
15 16.06 С 2 10 км ясно +29.0 +7.0 25 +28 +28 жарко 1010.5 999.0 +31.7
18 16.06 СВ 1 4000 м ясно +21.2 +12.6 58 +23 +23 комфорт 1010.8 999.0 +31.7
21 16.06 В 1 4000 м ясно +18.1 +12.9 72 +19 +19 1010.3 998.4
00 17.06 В 2 10 км ясно +16.9 +11.0 68 +17 +17 1009.5 997.6
03 17.06 ЮВ 4 10 км ясно +25.5 +8.2 33 +26 +29 жарко 1009.9 998.3 +16.8
06 17.06 Ю 3 10 км ясно +31.2 +1.7 15 +28 +42 жарко 1009.8 998.4 +16.8
09 17.06 В 3 10 км ясно +33.4 +3.6 15 +31 +46 жарко 1008.9 997.5
12 17.06 С 4 10 км ясно +30.4 +5.0 20 +29 +34 жарко 1007.4 996.2
15 17.06 С 1 10 км ясно +31.0 +11.4 30 +31 +31 жарко 1007.3 996.1 +34.9
18 17.06 Ю 1 10 км ясно +24.6 +14.8 54 +27 +27 жарко 1007.6 996.0 +34.9
21 17.06 СВ 3 10 км 8/0
[Ac trans]
+24.6 +10.9 42 +26 +26 жарко 1007.2 995.6
00 18.06 СВ 2 10 км 5/0
[Ac trans]
+20.1 +11.4 57 +22 +22 комфорт 1007.4 995.7
03 18.06 СВ 4 10 км 4/0
[Ac trans]
+24.5 +9.8 39 +25 +28 комфорт 1008.8 997.2 +19.6
06 18.06 В 3 10 км 5/0
[Ac trans]
+31.6 +8.8 24 +31 +41 жарко 1008.9 997.5 +19.6
09 18.06 В 2 10 км 10/0
[Ac trans]
+34.1 +5.9 17 +32 +39 жарко 1007.7 996.5
12 18.06 С 2 10 км 10/0
[Ac trans]
+33.4 +11.5 26 +33 +36 жарко 1006.9 995.7
15 18.06 ЮВ 3 10 км 9/3 2000 м
[Cb calv Ac trans]
+31.6 +7.6 22 +30 +30 жарко 1006.9 995.6 +34.9
18 18.06 СВ 6 10 км 8/0
[Ac trans]
+28.6 +8.9 29 +28 +28 жарко 1007.4 996.0 +34.9
21 18.06 В 3 10 км 9/0
[Ac trans]
+25.1 +12.4 45 +27 +27 жарко 1007.6 996.0
00 19.06 Ю 2 10 км 9/3 2000 м
[Cb calv Ac trans]
+25.0 +12.2 45 +27 +27 жарко 1007.7 996.1
03 19.06 СЗ 4 10 км слаб. ливневой дождь 9/4 1500 м
[Cb calv Ac trans]
+21.9 +15.9 69 +26 +27 душно 1009.2 997.5 +21.0
06 19.06 З 3 10 км {ливн. осадки} 3/0
[Ac trans]
+29.5 +15.0 41 +32 +43 душно 1007.8 996.5 +21.0 0.7
09 19.06 СВ 3 10 км 4/3 2000 м
[Cu hum Ci fib]
+33.4 +12.5 28 +34 +45 очень
жарко
1007.1 995.9
12 19.06 С 1 10 км 3/3 2000 м
[Cu hum]
+34.4 +10.4 23 +34 +40 очень
жарко
1006.1 994.9
15 19.06 З 2 10 км 4/0
[Ac trans]
+32.5 +11.9 28 +33 +33 жарко 1005.9 994.6 +35.0
18 19.06 СЗ 3 10 км 3/0
[Ac trans]
+25.7 +11.4 41 +27 +27 жарко 1006.4 994.9 +35.0 0.0

 

Местоположение метеостанции Ургенч (Хорезмская область, Узбекистан): широта 41.57 долгота 60.57 высота над уровнем моря 101 м.

В архиве по умолчанию представлена погода в Ургенче за последнюю неделю. Архивные данные за месяц целиком и за предыдущие месяцы, начиная с января 2011 года, Вы можете получить, выбрав интересующий диапазон дат из раскрывающегося списка и нажав кнопку "Ввод!".


*Определитесь, кто Вы:
робот инопланетянин человек

Внимание! Время в таблицах - всемирное. Для получения местного времени необходимо прибавить поправку, которая равна 5 ч.

Смотрите также архив погоды в соседних городах и на ближайших метеорологических станциях:

Погода в Хиве (Хорезмская область, Узбекистан) (25 км)
Погода в Гурлене (Хорезмская область, Узбекистан) (35 км)
Погода в Дашогузе (Дашогузский велаят, Туркменистан) (65 км)
Погода в Тюя-Муюне (Лебапский велаят, Туркменистан) (79 км)
Погода в Тахиаташе (Каракалпакстан, Узбекистан) (122 км)
Погода в Нукусе (Каракалпакстан, Узбекистан) (125 км)
Погода в Тахтакупыре (Каракалпакстан, Узбекистан) (128 км)
Погода в Кенеургенче (Дашогузский велаят, Туркменистан) (144 км)
Погода в Шах-Сенеме (Дашогузский велаят, Туркменистан) (154 км)
Погода в Бузаубае (Хорезмская область, Узбекистан) (159 км)

Пояснения к столбцам:

Ветер - указаны скорость ветра в м/с - средняя за 10 мин, порывы в срок и между сроками (в фигурных скобках) и направление, откуда дует ветер: С - северный, СВ - северо-восточный, В - восточный, ЮВ - юго-восточный, Ю - южный, ЮЗ - юго-западный, З - западный, СЗ - северо-западный.
Видимость - горизонтальная дальность видимости в метрах или километрах. При видимости от 1 до 10 км при отсутствии осадков обычно наблюдается дымка, при ухудшении видимости до 1 км и менее - туман. В сухую погоду видимость может ухудшаться дымом, пылью или мглою.
Явления - указаны атмосферные явления, наблюдавшиеся в срок или в последний час перед сроком; фигурными скобками обозначены явления, наблюдавшиеся между сроками (за 1-3 часа до срока); квадратными скобками обозначены град или гололедные отложения с указанием их диаметра в мм.
Облачность - указаны через наклонную черту общая и нижняя облачность в баллах и высота нижней границы облаков в метрах; квадратными скобками обозначены формы облаков: Ci - перистые, Cs - перисто-слоистые, Cc - перисто-кучевые, Ac - высококучевые, As - высокослоистые, Sc - слоисто-кучевые, Ns - слоисто-дождевые, Cu - кучевые, Cb - кучево-дождевые. Подробнее классификацию облаков см. в Атласе облаков (PDF).
T - Температура воздуха - температура, измеренная на высоте 2 м над землей.
Td - Температура точки росы - температура, при понижении до которой содержащийся в воздухе водяной пар достигнет насыщения.
f - Относительная влажность воздуха - влажноcть воздуха, измеренная на высоте 2 м над землей.
Te - Эффективная температура - температура, которую ощущает одетый по сезону человек в тени. Характеристика душности погоды. При расчете учитывается влияние влажности воздуха и скорости ветра на теплоощущения человека.
Tes - Эффективная температура на солнце - температура, которую ощущает человек, с поправкой на солнечный нагрев. Характеристика знойности погоды. Зависит от высоты солнца над горизонтом, облачности и скорости ветра. Ночью, в пасмурную погоду, а также при ветре 12 м/с и более поправка равна нулю.
P - Атмосферное давление - приведенное к уровню моря атмосферное давление.
Po - Атмосферное давление - измеренное на уровне метеостанции атмосферное давление.
Tmin - Минимальная температура - минимум температуры воздуха на высоте 2 м над землей.
Tmax - Максимальная температура - максимум температуры воздуха на высоте 2 м над землей.
R - Количество осадков - Количество выпавших осадков за период времени, мм. При наведении курсора мыши на число - период времени, за который выпало указанное количество осадков.
R24 - Количество осадков - Количество выпавших осадков за 24 часа, мм.
S - Снежный покров - Высота снежного покрова, см. При наведении курсора мыши на число - состояние снежного покрова и степень покрытия местности в баллах.